| time (UTC) | temp F | wind direction | speed knots | gust knots | rain 1hr in | rain 24hr in | rain mn in | humidity % | barometer mb |
| 20260506103046 | 50 | 0 | 0.0 | 0.0 | 0.00 | 0.02 | 0.00 | 71 | 1015.3 |
| 20260506102532 | 50 | 0 | 0.0 | 0.0 | 0.00 | 0.02 | 0.00 | 71 | 1015.2 |
| 20260506102032 | 50 | 0 | 0.0 | 0.0 | 0.00 | 0.02 | 0.00 | 71 | 1015.2 |
| 20260506101541 | 50 | 0 | 0.0 | 0.0 | 0.00 | 0.02 | 0.00 | 71 | 1015.2 |
| 20260506101031 | 50 | 0 | 0.0 | 0.0 | 0.00 | 0.02 | 0.00 | 71 | 1015.2 |
| 20260506100532 | 50 | 0 | 0.0 | 0.0 | 0.00 | 0.02 | 0.00 | 70 | 1015.2 |
| 20260506100039 | 51 | 0 | 0.0 | 0.0 | 0.00 | 0.02 | 0.00 | 70 | 1015.2 |
| 20260506095532 | 51 | 0 | 0.0 | 0.0 | 0.00 | 0.05 | 0.00 | 69 | 1015.1 |
| 20260506095035 | 51 | 0 | 0.0 | 1.7 | 0.00 | 0.05 | 0.00 | 69 | 1015.1 |
| 20260506094539 | 51 | 0 | 0.0 | 1.7 | 0.00 | 0.05 | 0.00 | 69 | 1015.2 |
| 20260506094037 | 51 | 360 | 0.0 | 0.9 | 0.00 | 0.05 | 0.00 | 69 | 1015.2 |
| 20260506093532 | 51 | 0 | 0.0 | 0.0 | 0.00 | 0.05 | 0.00 | 69 | 1015.2 |
| 20260506093037 | 51 | 0 | 0.0 | 0.0 | 0.00 | 0.05 | 0.00 | 69 | 1015.2 |
| 20260506092532 | 51 | 0 | 0.0 | 0.9 | 0.00 | 0.05 | 0.00 | 68 | 1015.3 |
| 20260506092032 | 51 | 0 | 0.0 | 0.9 | 0.00 | 0.05 | 0.00 | 68 | 1015.3 |
| 20260506091543 | 51 | 0 | 0.0 | 0.0 | 0.00 | 0.05 | 0.00 | 68 | 1015.2 |
| 20260506091032 | 51 | 0 | 0.0 | 0.0 | 0.00 | 0.05 | 0.00 | 68 | 1015.3 |
| 20260506090531 | 52 | 0 | 0.0 | 0.0 | 0.00 | 0.05 | 0.00 | 67 | 1015.3 |
| 20260506090040 | 52 | 0 | 0.0 | 0.0 | 0.00 | 0.05 | 0.00 | 67 | 1015.3 |
| 20260506085533 | 52 | 0 | 0.0 | 0.0 | 0.00 | 0.11 | 0.00 | 65 | 1015.3 |
| 20260506085033 | 53 | 0 | 0.0 | 0.0 | 0.00 | 0.11 | 0.00 | 64 | 1015.3 |
| 20260506084541 | 53 | 0 | 0.0 | 0.0 | 0.00 | 0.11 | 0.00 | 63 | 1015.2 |
| 20260506084033 | 53 | 0 | 0.0 | 0.0 | 0.00 | 0.11 | 0.00 | 63 | 1015.3 |
| 20260506083533 | 53 | 0 | 0.0 | 0.0 | 0.00 | 0.11 | 0.00 | 63 | 1015.4 |
| 20260506083042 | 53 | 0 | 0.0 | 0.0 | 0.00 | 0.11 | 0.00 | 63 | 1015.3 |
| 20260506082532 | 53 | 0 | 0.0 | 0.0 | 0.00 | 0.11 | 0.00 | 63 | 1015.3 |
| 20260506082035 | 53 | 0 | 0.0 | 0.0 | 0.00 | 0.11 | 0.00 | 63 | 1015.4 |
| 20260506081546 | 54 | 0 | 0.0 | 0.0 | 0.00 | 0.11 | 0.00 | 62 | 1015.3 |
| 20260506081032 | 54 | 0 | 0.0 | 4.3 | 0.00 | 0.11 | 0.00 | 62 | 1015.4 |
| 20260506080532 | 54 | 0 | 0.0 | 4.3 | 0.00 | 0.11 | 0.00 | 62 | 1015.5 |
| 20260506073041 | 55 | 0 | 0.0 | 0.0 | 0.00 | 0.23 | 0.00 | 59 | 1015.6 |
| 20260506072532 | 55 | 0 | 0.0 | 0.0 | 0.00 | 0.23 | 0.00 | 59 | 1015.5 |
| 20260506072033 | 55 | 0 | 0.0 | 0.0 | 0.00 | 0.23 | 0.00 | 59 | 1015.5 |
| 20260506071543 | 56 | 0 | 0.0 | 0.0 | 0.00 | 0.23 | 0.00 | 58 | 1015.5 |
| 20260506071033 | 56 | 0 | 0.0 | 0.0 | 0.00 | 0.23 | 0.00 | 58 | 1015.5 |
| 20260506070532 | 56 | 0 | 0.0 | 0.0 | 0.00 | 0.23 | 0.00 | 58 | 1015.5 |
| 20260506062032 | 58 | 360 | 1.7 | 4.3 | 0.00 | 0.25 | 0.23 | 53 | 1015.3 |
| 20260506061547 | 58 | 360 | 2.6 | 4.3 | 0.00 | 0.25 | 0.23 | 53 | 1015.4 |
| 20260506061034 | 58 | 360 | 1.7 | 5.2 | 0.00 | 0.25 | 0.23 | 52 | 1015.5 |
| 20260506060531 | 58 | 360 | 0.9 | 5.2 | 0.00 | 0.25 | 0.23 | 53 | 1015.5 |
| 20260506051032 | 60 | 360 | 1.7 | 5.2 | 0.00 | 0.25 | 0.23 | 51 | 1014.9 |
| 20260506050533 | 60 | 360 | 0.9 | 4.3 | 0.00 | 0.25 | 0.23 | 51 | 1014.9 |
| 20260506045034 | 60 | 0 | 0.0 | 2.6 | 0.00 | 0.25 | 0.23 | 50 | 1014.8 |
| 20260506044546 | 61 | 0 | 0.0 | 7.0 | 0.00 | 0.25 | 0.23 | 49 | 1014.7 |
| 20260506044034 | 61 | 0 | 0.9 | 7.0 | 0.00 | 0.25 | 0.23 | 49 | 1014.5 |
| 20260506043533 | 61 | 360 | 0.9 | 7.0 | 0.00 | 0.25 | 0.23 | 48 | 1014.6 |
| 20260506043049 | 61 | 360 | 0.9 | 4.3 | 0.00 | 0.25 | 0.23 | 48 | 1014.5 |
| 20260506042534 | 61 | 0 | 0.9 | 4.3 | 0.00 | 0.25 | 0.23 | 48 | 1014.4 |
| 20260506042031 | 62 | 360 | 0.9 | 7.0 | 0.00 | 0.25 | 0.23 | 47 | 1014.4 |
| 20260506041540 | 62 | 0 | 2.6 | 7.0 | 0.00 | 0.25 | 0.23 | 47 | 1014.3 |
| 20260506041032 | 62 | 360 | 2.6 | 7.0 | 0.00 | 0.25 | 0.23 | 47 | 1014.2 |
| 20260506040532 | 62 | 360 | 0.0 | 8.7 | 0.00 | 0.25 | 0.23 | 46 | 1014.2 |
| 20260506040050 | 62 | 0 | 2.6 | 8.7 | 0.00 | 0.25 | 0.23 | 45 | 1014.1 |
| 20260506035534 | 63 | 360 | 4.3 | 8.7 | 0.00 | 0.25 | 0.23 | 45 | 1014.0 |
| 20260506035034 | 63 | 240 | 2.6 | 6.1 | 0.00 | 0.25 | 0.23 | 45 | 1014.0 |
| 20260506034541 | 63 | 226 | 1.7 | 10.4 | 0.00 | 0.25 | 0.23 | 44 | 1013.9 |
| 20260506034031 | 63 | 0 | 2.6 | 10.4 | 0.00 | 0.25 | 0.23 | 44 | 1013.9 |
| 20260506033533 | 64 | 360 | 3.5 | 10.4 | 0.00 | 0.25 | 0.23 | 43 | 1013.9 |
| 20260506033039 | 64 | 236 | 3.5 | 9.6 | 0.00 | 0.25 | 0.23 | 42 | 1013.8 |
| 20260506032532 | 64 | 236 | 4.3 | 9.6 | 0.00 | 0.25 | 0.23 | 42 | 1013.6 |
| 20260506032034 | 64 | 242 | 4.3 | 7.8 | 0.00 | 0.25 | 0.23 | 42 | 1013.6 |
| 20260506031542 | 64 | 360 | 3.5 | 7.8 | 0.00 | 0.25 | 0.23 | 41 | 1013.5 |
| 20260506031033 | 64 | 0 | 2.6 | 11.3 | 0.00 | 0.25 | 0.23 | 41 | 1013.5 |
| 20260506030532 | 65 | 242 | 3.5 | 11.3 | 0.00 | 0.25 | 0.23 | 40 | 1013.3 |
| 20260506030040 | 65 | 250 | 4.3 | 9.6 | 0.00 | 0.25 | 0.23 | 40 | 1013.2 |
| 20260506025532 | 65 | 250 | 3.5 | 9.6 | 0.00 | 0.25 | 0.23 | 40 | 1013.2 |
| 20260506025031 | 65 | 269 | 2.6 | 7.8 | 0.00 | 0.25 | 0.23 | 40 | 1013.1 |
| 20260506024548 | 65 | 254 | 3.5 | 10.4 | 0.00 | 0.25 | 0.23 | 40 | 1013.1 |
| 20260506024032 | 65 | 250 | 5.2 | 10.4 | 0.00 | 0.25 | 0.23 | 39 | 1013.1 |
| 20260506023534 | 66 | 262 | 6.1 | 10.4 | 0.00 | 0.25 | 0.23 | 38 | 1013.0 |
| 20260506023045 | 66 | 242 | 3.5 | 10.4 | 0.00 | 0.25 | 0.23 | 38 | 1012.8 |
| 20260506022535 | 66 | 260 | 3.5 | 10.4 | 0.00 | 0.25 | 0.23 | 38 | 1012.7 |
| 20260506022031 | 66 | 258 | 4.3 | 10.4 | 0.00 | 0.25 | 0.23 | 38 | 1012.6 |
| 20260506021544 | 66 | 249 | 5.2 | 11.3 | 0.00 | 0.25 | 0.23 | 37 | 1012.5 |
| 20260506021031 | 67 | 264 | 4.3 | 13.9 | 0.00 | 0.25 | 0.23 | 37 | 1012.3 |
| 20260506020530 | 67 | 263 | 7.0 | 13.9 | 0.00 | 0.25 | 0.23 | 36 | 1012.1 |
| 20260506020040 | 67 | 260 | 6.1 | 13.0 | 0.00 | 0.25 | 0.23 | 36 | 1012.1 |
| 20260506015531 | 68 | 281 | 7.0 | 13.0 | 0.00 | 0.25 | 0.23 | 36 | 1012.0 |
| 20260506015032 | 68 | 239 | 6.1 | 13.9 | 0.00 | 0.25 | 0.23 | 35 | 1012.0 |
| 20260506014557 | 68 | 271 | 7.0 | 13.9 | 0.00 | 0.25 | 0.23 | 35 | 1011.9 |
| 20260506014033 | 69 | 236 | 4.3 | 13.9 | 0.00 | 0.25 | 0.23 | 35 | 1011.8 |
| 20260506013531 | 69 | 232 | 7.0 | 13.9 | 0.00 | 0.25 | 0.23 | 35 | 1011.8 |
| 20260506013039 | 69 | 233 | 6.1 | 12.2 | 0.00 | 0.25 | 0.23 | 34 | 1011.8 |
| 20260506012534 | 70 | 195 | 6.1 | 13.0 | 0.00 | 0.25 | 0.23 | 34 | 1011.7 |
| 20260506012031 | 70 | 242 | 3.5 | 13.9 | 0.00 | 0.25 | 0.23 | 34 | 1011.7 |
| 20260506011601 | 70 | 257 | 7.0 | 14.8 | 0.00 | 0.25 | 0.23 | 32 | 1011.7 |
| 20260506011033 | 70 | 205 | 5.2 | 14.8 | 0.00 | 0.25 | 0.23 | 33 | 1011.7 |
| 20260506010534 | 70 | 225 | 7.8 | 14.8 | 0.00 | 0.25 | 0.23 | 33 | 1011.7 |
| 20260506010035 | 70 | 248 | 7.8 | 14.8 | 0.00 | 0.25 | 0.23 | 31 | 1011.5 |
| 20260506005531 | 70 | 224 | 6.1 | 15.6 | 0.00 | 0.25 | 0.23 | 31 | 1011.5 |
| 20260506005033 | 70 | 203 | 7.8 | 15.6 | 0.00 | 0.25 | 0.23 | 31 | 1011.5 |
| 20260506004558 | 70 | 226 | 4.3 | 14.8 | 0.00 | 0.25 | 0.23 | 31 | 1011.4 |
| 20260506004033 | 70 | 233 | 8.7 | 17.4 | 0.00 | 0.25 | 0.23 | 30 | 1011.4 |
| 20260506003533 | 70 | 223 | 9.6 | 18.2 | 0.00 | 0.25 | 0.23 | 29 | 1011.4 |
| 20260506003039 | 70 | 254 | 7.0 | 18.2 | 0.00 | 0.25 | 0.23 | 29 | 1011.3 |
| 20260506002532 | 70 | 215 | 7.0 | 20.9 | 0.00 | 0.25 | 0.23 | 29 | 1011.3 |
| 20260506002034 | 70 | 216 | 8.7 | 20.9 | 0.00 | 0.25 | 0.23 | 27 | 1011.3 |
| 20260506001543 | 71 | 204 | 8.7 | 20.9 | 0.00 | 0.25 | 0.23 | 28 | 1011.4 |
| 20260506001034 | 72 | 250 | 8.7 | 17.4 | 0.00 | 0.25 | 0.23 | 27 | 1011.4 |
| 20260506000534 | 72 | 215 | 9.6 | 20.0 | 0.00 | 0.25 | 0.23 | 28 | 1011.3 |
| 20260506000111 | 72 | 236 | 11.3 | 20.0 | 0.00 | 0.25 | 0.23 | 27 | 1011.2 |
| 20260505235532 | 72 | 248 | 9.6 | 20.0 | 0.00 | 0.25 | 0.23 | 27 | 1011.1 |
| 20260505235033 | 73 | 242 | 8.7 | 21.7 | 0.00 | 0.25 | 0.23 | 27 | 1011.0 |
| 20260505234545 | 73 | 225 | 10.4 | 21.7 | 0.00 | 0.25 | 0.23 | 25 | 1011.1 |
| 20260505234035 | 73 | 242 | 11.3 | 21.7 | 0.00 | 0.25 | 0.23 | 23 | 1011.1 |
| 20260505233534 | 73 | 256 | 11.3 | 21.7 | 0.00 | 0.25 | 0.23 | 24 | 1011.1 |
| 20260505233044 | 73 | 220 | 11.3 | 22.6 | 0.00 | 0.25 | 0.23 | 24 | 1011.0 |
| 20260505232533 | 73 | 260 | 10.4 | 24.3 | 0.00 | 0.25 | 0.23 | 23 | 1011.0 |
| 20260505232032 | 73 | 243 | 12.2 | 24.3 | 0.00 | 0.25 | 0.23 | 24 | 1011.0 |
| 20260505231541 | 73 | 234 | 9.6 | 19.1 | 0.00 | 0.25 | 0.23 | 23 | 1010.9 |
| 20260505231032 | 74 | 213 | 9.6 | 19.1 | 0.00 | 0.25 | 0.23 | 24 | 1010.9 |
| 20260505230531 | 74 | 159 | 9.6 | 19.1 | 0.00 | 0.25 | 0.23 | 25 | 1010.8 |
| 20260505230058 | 73 | 246 | 11.3 | 20.9 | 0.00 | 0.25 | 0.23 | 26 | 1010.9 |
| 20260505225534 | 74 | 205 | 10.4 | 20.9 | 0.00 | 0.25 | 0.23 | 26 | 1010.9 |
| 20260505225037 | 74 | 159 | 11.3 | 20.0 | 0.00 | 0.25 | 0.23 | 26 | 1010.9 |
| 20260505224542 | 74 | 229 | 10.4 | 20.9 | 0.00 | 0.25 | 0.23 | 28 | 1010.8 |
| 20260505224033 | 74 | 229 | 8.7 | 20.9 | 0.00 | 0.25 | 0.23 | 29 | 1011.0 |
| 20260505223534 | 74 | 250 | 7.8 | 21.7 | 0.00 | 0.25 | 0.23 | 29 | 1010.9 |
| 20260505223048 | 74 | 202 | 11.3 | 21.7 | 0.00 | 0.25 | 0.23 | 30 | 1011.0 |
| 20260505222535 | 74 | 221 | 10.4 | 21.7 | 0.00 | 0.25 | 0.23 | 30 | 1011.2 |
| 20260505222033 | 74 | 154 | 9.6 | 17.4 | 0.00 | 0.25 | 0.23 | 31 | 1011.2 |
| 20260505221554 | 75 | 242 | 7.8 | 20.9 | 0.00 | 0.25 | 0.23 | 32 | 1011.2 |
| 20260505221036 | 75 | 202 | 9.6 | 20.9 | 0.00 | 0.25 | 0.23 | 32 | 1011.2 |
| 20260505220532 | 75 | 235 | 8.7 | 17.4 | 0.00 | 0.25 | 0.23 | 30 | 1011.1 |
| 20260505220045 | 75 | 222 | 5.2 | 15.6 | 0.00 | 0.25 | 0.23 | 33 | 1011.2 |
| 20260505215532 | 74 | 185 | 6.1 | 19.1 | 0.00 | 0.25 | 0.23 | 30 | 1011.3 |
| 20260505215032 | 75 | 216 | 8.7 | 19.1 | 0.00 | 0.25 | 0.23 | 30 | 1011.3 |
| 20260505214543 | 75 | 212 | 6.1 | 16.5 | 0.00 | 0.25 | 0.23 | 33 | 1011.3 |
| 20260505214032 | 74 | 196 | 4.3 | 16.5 | 0.00 | 0.25 | 0.23 | 33 | 1011.5 |
| 20260505213533 | 73 | 165 | 7.8 | 16.5 | 0.00 | 0.25 | 0.23 | 33 | 1011.5 |
| 20260505213040 | 73 | 198 | 7.0 | 20.0 | 0.00 | 0.25 | 0.23 | 34 | 1011.6 |
| 20260505212531 | 74 | 226 | 11.3 | 20.0 | 0.00 | 0.25 | 0.23 | 31 | 1011.6 |
| 20260505212032 | 75 | 197 | 9.6 | 19.1 | 0.00 | 0.25 | 0.23 | 33 | 1011.6 |
| 20260505211542 | 75 | 186 | 8.7 | 17.4 | 0.00 | 0.25 | 0.23 | 34 | 1011.7 |
| 20260505211034 | 75 | 186 | 7.8 | 16.5 | 0.00 | 0.25 | 0.23 | 34 | 1011.6 |
| 20260505210535 | 75 | 186 | 8.7 | 19.1 | 0.00 | 0.25 | 0.23 | 33 | 1011.7 |
| 20260505210042 | 74 | 229 | 8.7 | 19.1 | 0.00 | 0.25 | 0.23 | 34 | 1011.8 |
| 20260505205533 | 74 | 232 | 9.6 | 19.1 | 0.00 | 0.25 | 0.23 | 34 | 1011.8 |
| 20260505205033 | 74 | 215 | 12.2 | 19.1 | 0.00 | 0.25 | 0.23 | 34 | 1012.0 |
| 20260505204552 | 74 | 165 | 9.6 | 19.1 | 0.00 | 0.25 | 0.23 | 34 | 1011.8 |
| 20260505204032 | 75 | 193 | 8.7 | 20.0 | 0.00 | 0.25 | 0.23 | 34 | 1012.0 |
| 20260505203535 | 75 | 215 | 11.3 | 20.0 | 0.00 | 0.25 | 0.23 | 33 | 1011.9 |
| 20260505203053 | 75 | 179 | 8.7 | 20.0 | 0.00 | 0.25 | 0.23 | 33 | 1012.0 |
| 20260505202533 | 74 | 188 | 11.3 | 23.5 | 0.00 | 0.25 | 0.23 | 35 | 1011.9 |
| 20260505202033 | 74 | 191 | 12.2 | 23.5 | 0.00 | 0.25 | 0.23 | 36 | 1011.9 |
| 20260505201543 | 74 | 218 | 9.6 | 24.3 | 0.00 | 0.25 | 0.23 | 35 | 1011.9 |
| 20260505201033 | 74 | 205 | 10.4 | 24.3 | 0.00 | 0.25 | 0.23 | 36 | 1012.0 |
| 20260505200534 | 74 | 220 | 10.4 | 21.7 | 0.00 | 0.25 | 0.23 | 36 | 1011.9 |
| 20260505200038 | 74 | 210 | 9.6 | 21.7 | 0.00 | 0.25 | 0.23 | 37 | 1011.9 |
| 20260505195533 | 74 | 211 | 7.8 | 26.1 | 0.00 | 0.25 | 0.23 | 39 | 1012.1 |
| 20260505195034 | 73 | 223 | 9.6 | 26.1 | 0.00 | 0.25 | 0.23 | 40 | 1012.1 |
| 20260505194603 | 73 | 200 | 11.3 | 24.3 | 0.00 | 0.25 | 0.23 | 39 | 1012.2 |
| 20260505194033 | 73 | 145 | 12.2 | 23.5 | 0.00 | 0.25 | 0.23 | 38 | 1012.0 |
| 20260505193535 | 73 | 198 | 10.4 | 22.6 | 0.00 | 0.25 | 0.23 | 39 | 1012.2 |
| 20260505193045 | 73 | 199 | 11.3 | 22.6 | 0.00 | 0.25 | 0.23 | 40 | 1012.1 |
| 20260505192532 | 73 | 160 | 10.4 | 22.6 | 0.00 | 0.25 | 0.23 | 40 | 1012.2 |
| 20260505192034 | 73 | 193 | 10.4 | 21.7 | 0.00 | 0.25 | 0.23 | 40 | 1012.0 |
| 20260505191554 | 73 | 199 | 11.3 | 20.9 | 0.00 | 0.25 | 0.23 | 40 | 1012.2 |
| 20260505191033 | 73 | 223 | 10.4 | 24.3 | 0.00 | 0.25 | 0.23 | 40 | 1012.3 |
| 20260505190536 | 73 | 196 | 11.3 | 24.3 | 0.00 | 0.25 | 0.23 | 40 | 1012.3 |
| 20260505190040 | 73 | 190 | 7.0 | 23.5 | 0.00 | 0.25 | 0.23 | 41 | 1012.5 |
| 20260505185532 | 73 | 215 | 7.8 | 20.0 | 0.00 | 0.25 | 0.23 | 41 | 1012.7 |
| 20260505185033 | 73 | 212 | 11.3 | 20.0 | 0.00 | 0.25 | 0.23 | 39 | 1012.7 |
| 20260505184538 | 73 | 242 | 7.0 | 19.1 | 0.00 | 0.25 | 0.23 | 39 | 1012.5 |
| 20260505184033 | 72 | 167 | 8.7 | 19.1 | 0.00 | 0.25 | 0.23 | 40 | 1012.6 |
| 20260505183532 | 72 | 229 | 7.8 | 21.7 | 0.00 | 0.25 | 0.23 | 41 | 1012.7 |
| 20260505183040 | 72 | 196 | 9.6 | 21.7 | 0.00 | 0.25 | 0.23 | 43 | 1012.7 |
| 20260505182533 | 72 | 188 | 7.8 | 17.4 | 0.00 | 0.25 | 0.23 | 43 | 1012.7 |
| 20260505182033 | 72 | 214 | 8.7 | 20.9 | 0.00 | 0.25 | 0.23 | 43 | 1012.7 |
| 20260505181545 | 71 | 216 | 8.7 | 20.9 | 0.00 | 0.25 | 0.23 | 43 | 1012.8 |
| 20260505181032 | 71 | 240 | 9.6 | 21.7 | 0.00 | 0.25 | 0.23 | 43 | 1012.8 |
| 20260505180533 | 72 | 210 | 11.3 | 21.7 | 0.00 | 0.25 | 0.23 | 44 | 1012.9 |
| 20260505180045 | 72 | 215 | 8.7 | 16.5 | 0.00 | 0.25 | 0.23 | 45 | 1012.7 |
| 20260505175534 | 72 | 205 | 6.1 | 15.6 | 0.00 | 0.25 | 0.23 | 47 | 1013.0 |
| 20260505175031 | 71 | 212 | 7.8 | 15.6 | 0.00 | 0.25 | 0.23 | 45 | 1012.9 |
| 20260505174541 | 71 | 263 | 5.2 | 13.9 | 0.00 | 0.25 | 0.23 | 47 | 1012.9 |
| 20260505174034 | 71 | 222 | 7.0 | 13.9 | 0.00 | 0.25 | 0.23 | 47 | 1012.9 |
| 20260505173534 | 70 | 202 | 4.3 | 14.8 | 0.00 | 0.25 | 0.23 | 47 | 1012.9 |
| 20260505173038 | 70 | 233 | 6.1 | 14.8 | 0.00 | 0.25 | 0.23 | 48 | 1013.0 |
| 20260505172533 | 70 | 246 | 7.0 | 16.5 | 0.00 | 0.25 | 0.23 | 49 | 1012.9 |
| 20260505172033 | 69 | 238 | 6.1 | 16.5 | 0.00 | 0.25 | 0.23 | 49 | 1012.9 |
| 20260505171538 | 68 | 208 | 6.1 | 13.0 | 0.00 | 0.25 | 0.23 | 50 | 1013.0 |
| 20260505171033 | 68 | 205 | 4.3 | 9.6 | 0.00 | 0.25 | 0.23 | 50 | 1012.9 |
| 20260505170533 | 68 | 205 | 4.3 | 8.7 | 0.00 | 0.25 | 0.23 | 52 | 1013.0 |
| 20260505170046 | 68 | 184 | 1.7 | 8.7 | 0.00 | 0.25 | 0.23 | 55 | 1013.0 |
| 20260505165534 | 68 | 184 | 1.7 | 7.8 | 0.00 | 0.25 | 0.23 | 54 | 1013.1 |
| 20260505165032 | 68 | 0 | 1.7 | 7.8 | 0.00 | 0.25 | 0.23 | 55 | 1013.1 |
| 20260505164537 | 68 | 205 | 2.6 | 8.7 | 0.00 | 0.25 | 0.23 | 57 | 1013.1 |
| 20260505164035 | 67 | 0 | 3.5 | 8.7 | 0.00 | 0.25 | 0.23 | 58 | 1013.1 |
| 20260505163534 | 67 | 0 | 1.7 | 7.8 | 0.00 | 0.25 | 0.23 | 58 | 1013.2 |
| 20260505163042 | 67 | 0 | 0.0 | 7.0 | 0.00 | 0.25 | 0.23 | 59 | 1013.2 |
| 20260505162532 | 67 | 0 | 0.0 | 7.0 | 0.00 | 0.25 | 0.23 | 60 | 1013.3 |
| 20260505162032 | 66 | 215 | 0.9 | 7.8 | 0.00 | 0.25 | 0.23 | 62 | 1013.3 |
| 20260505161541 | 65 | 254 | 3.5 | 7.8 | 0.00 | 0.25 | 0.23 | 62 | 1013.3 |
| 20260505161033 | 65 | 242 | 0.0 | 7.0 | 0.00 | 0.25 | 0.23 | 61 | 1013.3 |
| 20260505160536 | 65 | 245 | 2.6 | 7.0 | 0.00 | 0.25 | 0.23 | 61 | 1013.2 |
| 20260505153034 | 61 | 0 | 0.0 | 0.0 | 0.00 | 0.25 | 0.23 | 74 | 1013.4 |
| 20260505152531 | 61 | 0 | 0.0 | 0.0 | 0.00 | 0.25 | 0.23 | 76 | 1013.5 |
| 20260505152033 | 60 | 0 | 0.0 | 0.0 | 0.00 | 0.25 | 0.23 | 75 | 1013.3 |
| 20260505151545 | 60 | 0 | 0.0 | 0.0 | 0.00 | 0.25 | 0.23 | 77 | 1013.4 |
| 20260505151033 | 59 | 0 | 0.0 | 0.0 | 0.00 | 0.25 | 0.23 | 80 | 1013.2 |
| 20260505150533 | 59 | 0 | 0.0 | 0.0 | 0.00 | 0.25 | 0.23 | 82 | 1013.3 |
| 20260505150104 | 59 | 0 | 0.0 | 0.0 | 0.00 | 0.25 | 0.23 | 83 | 1013.3 |
| 20260505140534 | 57 | 0 | 0.0 | 0.0 | 0.00 | 0.25 | 0.23 | 84 | 1012.8 |
| 20260505125032 | 56 | 0 | 0.0 | 0.0 | 0.01 | 0.25 | 0.23 | 86 | 1012.1 |
| 20260505124547 | 56 | 0 | 0.0 | 0.0 | 0.01 | 0.25 | 0.23 | 86 | 1012.1 |
| 20260505124032 | 56 | 0 | 0.0 | 0.0 | 0.01 | 0.25 | 0.23 | 86 | 1011.9 |
| 20260505123533 | 56 | 0 | 0.0 | 0.0 | 0.01 | 0.25 | 0.23 | 86 | 1011.9 |
| 20260505123049 | 56 | 0 | 0.0 | 0.0 | 0.01 | 0.25 | 0.23 | 86 | 1011.8 |
| 20260505122532 | 56 | 0 | 0.0 | 0.0 | 0.01 | 0.25 | 0.23 | 86 | 1011.8 |
| 20260505122034 | 56 | 0 | 0.0 | 0.0 | 0.01 | 0.25 | 0.23 | 86 | 1011.9 |
| 20260505121613 | 56 | 0 | 0.0 | 0.0 | 0.01 | 0.25 | 0.23 | 86 | 1011.7 |
| 20260505121034 | 56 | 0 | 0.0 | 0.0 | 0.01 | 0.25 | 0.23 | 86 | 1011.8 |
| 20260505120533 | 56 | 0 | 0.0 | 0.0 | 0.01 | 0.25 | 0.23 | 86 | 1011.7 |
| 20260505120038 | 56 | 0 | 0.0 | 0.0 | 0.00 | 0.24 | 0.22 | 87 | 1011.8 |
| 20260505115530 | 56 | 0 | 0.0 | 0.0 | 0.00 | 0.24 | 0.22 | 87 | 1012.0 |
| 20260505115032 | 56 | 0 | 0.0 | 0.0 | 0.00 | 0.24 | 0.22 | 87 | 1011.9 |
| 20260505114538 | 56 | 0 | 0.0 | 0.0 | 0.00 | 0.24 | 0.22 | 87 | 1011.6 |
| 20260505114034 | 56 | 0 | 0.0 | 0.0 | 0.01 | 0.24 | 0.22 | 87 | 1011.7 |
| 20260505113533 | 56 | 0 | 0.0 | 0.0 | 0.01 | 0.24 | 0.22 | 87 | 1011.7 |
| 20260505113048 | 56 | 0 | 0.0 | 0.0 | 0.01 | 0.24 | 0.22 | 87 | 1011.7 |
| 20260505112532 | 56 | 0 | 0.0 | 0.0 | 0.01 | 0.24 | 0.22 | 87 | 1011.7 |
| 20260505112030 | 56 | 0 | 0.0 | 0.0 | 0.01 | 0.24 | 0.22 | 86 | 1011.7 |
| 20260505111540 | 56 | 0 | 0.0 | 0.0 | 0.01 | 0.24 | 0.22 | 86 | 1011.5 |
| 20260505111032 | 56 | 0 | 0.0 | 0.0 | 0.01 | 0.24 | 0.22 | 87 | 1011.7 |
| 20260505110531 | 56 | 0 | 0.0 | 0.0 | 0.01 | 0.24 | 0.22 | 86 | 1011.9 |